User: anonymous   Login
Location: Unspecified
(0.0000°N, 0.0000°E)
Time: 17:18:24
(UTC+00:00)
Language:

COSMOS 2400 - Orbit

View from above orbital plane
View from above orbital plane
View from above satellite
View from above satellite

Ground track
Ground track

The orbit data is extracted from the following two-line orbital elements,

1 27868U 03037A   18113.47571923  .00000017  00000-0  51311-4 0  9999
2 27868  82.4751  36.1958 0023069  88.3856 271.9865 12.45132918667171
Epoch (UTC): 23 April 2018 11:25:02
Eccentricity: 0.0023069
inclination: 82.4751°
perigee height: 1467 km
apogee height: 1503 km
right ascension of ascending node: 36.1958°
argument of perigee: 88.3856°
revolutions per day: 12.45132918
mean anomaly at epoch: 271.9865°
orbit number at epoch: 66717

The dashed part of the orbit path shows where the satellite is in the earth's shadow,  

DLR